Temp
23 23 23 22 22 22 21 20 19 19 19 18 18 17 17 17 17 17 17 17 16 15 14 14 14 14 13 14 13 14 14 14
23 23 23 22 22 21 21 20 20 19 19 19 18 17 17 16 16 16 16 16 16 16 14 14 14 14 14 13 13 14 14 14
23 23 22 22 22 21 20 20 20 19 19 19 18 17 17 16 16 16 16 16 16 16 14 15 15 15 14 14 14 13 14 13
22 22 22 22 21 21 20 20 20 19 19 19 18 18 17 17 16 16 15 16 16 15 15 14 14 14 14 14 15 14 13 13
23 22 22 22 21 21 20 20 20 19 19 19 19 18 17 17 16 15 15 15 15 15 15 14 14 14 14 14 14 14 13 13
23 22 22 22 21 21 21 20 20 19 19 19 19 18 17 17 16 16 15 15 15 15 15 15 14 14 14 13 13 12 13 13
23 22 22 21 21 21 21 20 20 19 19 18 18 18 18 17 16 15 15 14 14 15 15 14 14 14 13 13 12 11 12 13
22 22 22 21 21 21 21 20 20 20 19 19 18 18 17 17 16 15 15 15 14 14 14 14 14 13 13 12 12 12 12 13
21 22 21 21 21 21 20 20 20 20 19 19 18 18 17 17 16 15 15 15 14 14 14 13 13 13 13 13 12 12 11 12
21 21 21 21 21 21 21 20 20 19 19 18 18 17 17 16 16 15 15 15 14 14 13 13 13 13 13 13 12 12 11 12
22 21 21 22 21 21 20 19 18 18 18 17 17 17 16 16 16 15 15 14 14 14 13 13 12 12 12 12 11 11 11 11
22 22 22 22 21 20 19 18 18 17 17 17 16 16 16 15 15 14 15 14 14 13 13 12 12 12 12 11 11 10 10 10
21 22 22 22 21 20 19 19 18 18 18 17 16 15 15 14 15 14 15 15 15 15 13 12 12 12 11 10 10 10 9 10
22 21 22 21 21 20 19 19 18 18 17 17 17 16 16 15 15 15 15 14 14 14 14 12 12 12 11 10 9 9 9 10
20 21 21 19 19 19 18 18 17 17 17 17 16 16 15 15 15 14 15 14 15 15 14 14 13 12 11 11 10 10 10 10
17 17 17 17 17 16 16 17 17 17 17 17 16 16 15 14 14 14 14 14 14 15 14 14 14 13 11 10 11 11 10 9
16 16 16 16 17 17 17 16 16 16 16 16 15 15 14 14 14 14 13 13 14 14 14 13 13 13 13 13 11 10 11 11
16 16 16 16 15 16 17 15 15 14 14 15 14 14 14 14 14 14 14 13 13 13 13 13 13 14 13 13 13 11 11 11
15 15 13 14 14 14 14 14 14 14 14 14 13 13 13 14 13 13 14 13 13 13 13 13 13 13 13 13 13 13 11 11
14 15 15 14 14 15 15 14 13 13 12 12 12 12 13 13 13 13 13 14 13 13 13 13 13 12 12 12 12 12 12 11
Height
1479 1480 1485 1488 1490 1492 1494 1497 1500 1503 1505 1508 1510 1512 1514 1517 1519 1521 1522 1523 1524 1525 1526 1528 1529 1531 1532 1532 1536 1538 1539 1541
1477 1479 1482 1486 1489 1491 1493 1496 1499 1501 1503 1506 1508 1511 1514 1516 1518 1520 1522 1523 1524 1524 1525 1527 1529 1531 1533 1534 1536 1539 1539 1541
1476 1479 1480 1484 1487 1490 1492 1495 1497 1500 1502 1504 1506 1509 1512 1514 1516 1519 1521 1523 1524 1524 1525 1528 1529 1530 1533 1534 1535 1538 1540 1542
1475 1478 1480 1483 1485 1488 1490 1492 1495 1497 1500 1502 1504 1507 1509 1512 1514 1517 1519 1521 1523 1524 1527 1528 1529 1529 1532 1534 1535 1538 1539 1541
1472 1475 1478 1480 1483 1485 1488 1490 1492 1494 1497 1499 1501 1504 1507 1509 1512 1513 1516 1519 1521 1523 1525 1527 1529 1530 1531 1534 1534 1535 1539 1541
1469 1471 1475 1477 1480 1482 1485 1487 1489 1491 1493 1496 1498 1501 1503 1505 1508 1510 1513 1516 1519 1521 1524 1526 1528 1528 1530 1532 1533 1535 1537 1540
1468 1469 1471 1474 1477 1480 1482 1484 1487 1489 1491 1493 1496 1498 1500 1503 1505 1508 1510 1513 1517 1519 1522 1524 1526 1527 1529 1531 1533 1533 1536 1539
1466 1467 1468 1469 1472 1476 1479 1481 1483 1485 1487 1489 1492 1495 1497 1500 1502 1505 1508 1511 1514 1517 1520 1522 1524 1525 1526 1529 1532 1534 1536 1538
1461 1463 1464 1465 1466 1470 1473 1477 1479 1481 1484 1486 1488 1491 1493 1496 1499 1502 1504 1508 1511 1515 1517 1520 1522 1524 1525 1526 1527 1530 1533 1537
1452 1455 1457 1460 1462 1463 1467 1471 1475 1477 1480 1483 1485 1487 1489 1492 1495 1498 1501 1505 1507 1510 1514 1516 1519 1521 1522 1523 1525 1528 1530 1534
1442 1446 1450 1453 1456 1459 1461 1464 1470 1474 1476 1478 1481 1483 1484 1488 1490 1494 1498 1501 1503 1506 1509 1512 1515 1517 1520 1521 1523 1525 1527 1530
1435 1438 1442 1446 1450 1452 1457 1461 1466 1470 1472 1474 1477 1479 1480 1483 1486 1489 1493 1496 1499 1501 1505 1508 1512 1515 1517 1519 1520 1522 1523 1527
1425 1430 1434 1438 1442 1445 1450 1455 1459 1463 1466 1470 1473 1474 1477 1479 1480 1484 1487 1489 1492 1496 1499 1504 1507 1511 1515 1518 1518 1520 1522 1524
1412 1422 1426 1431 1434 1439 1444 1449 1453 1456 1463 1465 1468 1470 1471 1473 1475 1478 1480 1484 1486 1488 1493 1498 1502 1506 1510 1514 1514 1519 1519 1521
1406 1413 1419 1426 1430 1436 1441 1443 1448 1451 1455 1458 1461 1464 1468 1469 1470 1473 1474 1478 1480 1483 1487 1491 1495 1500 1503 1508 1509 1511 1514 1517
1412 1413 1416 1420 1425 1430 1436 1439 1443 1446 1449 1453 1457 1459 1462 1463 1465 1467 1468 1471 1474 1478 1482 1485 1489 1492 1496 1500 1503 1504 1508 1511
1416 1415 1416 1420 1425 1427 1432 1437 1439 1441 1443 1446 1449 1453 1454 1456 1458 1460 1462 1464 1468 1471 1476 1478 1481 1486 1488 1492 1497 1499 1501 1504
1413 1415 1416 1419 1424 1425 1424 1431 1435 1437 1438 1439 1442 1446 1447 1449 1450 1452 1454 1457 1461 1464 1468 1471 1475 1478 1482 1485 1488 1490 1492 1497
1406 1416 1419 1419 1421 1423 1422 1427 1432 1434 1433 1433 1435 1438 1441 1442 1444 1445 1446 1449 1453 1457 1460 1464 1467 1471 1475 1478 1481 1483 1487 1490
1407 1408 1414 1422 1418 1417 1417 1425 1428 1430 1429 1428 1429 1431 1433 1435 1438 1439 1441 1443 1446 1449 1453 1457 1461 1464 1467 1470 1474 1476 1480 1482
Wind_Speed
27 24 21 18 17 16 18 18 18 18 17 17 17 17 17 19 13 12 10 8 6 12 14 17 16 15 15 14 13 9 8 10
28 27 25 22 20 19 18 19 19 19 19 18 18 17 17 18 17 13 9 8 6 11 19 19 15 13 14 15 13 9 8 7
28 27 27 25 23 22 22 20 20 20 20 20 20 20 20 20 19 17 11 9 8 15 21 19 16 14 12 14 12 10 13 14
30 29 27 26 26 25 25 24 23 23 22 22 22 22 22 21 21 20 15 12 11 18 22 18 17 16 14 14 12 15 10 14
31 30 29 28 28 28 28 28 26 26 24 23 23 24 24 23 23 23 20 18 16 20 22 22 18 17 15 14 17 19 14 15
30 32 30 30 30 30 30 30 29 29 28 27 26 26 27 26 26 25 23 22 20 20 22 22 19 18 18 17 15 16 18 16
33 32 32 30 30 32 32 32 31 31 30 29 29 29 28 27 28 26 25 24 23 23 21 20 19 18 19 18 17 18 19 17
40 37 36 34 32 32 34 34 33 33 32 32 31 30 30 29 28 27 26 25 24 25 22 20 19 19 19 17 17 18 20 21
46 39 38 35 32 30 33 34 34 33 33 32 31 30 30 30 29 29 27 25 24 25 24 21 21 21 23 21 21 21 21 21
49 44 40 37 34 32 31 31 32 31 31 31 32 31 31 30 29 29 28 26 26 25 26 25 24 25 24 28 22 25 23 21
39 47 43 39 38 35 34 32 30 26 26 27 30 32 32 31 30 29 28 27 27 26 27 27 27 27 24 26 23 26 27 25
42 42 38 39 42 41 37 31 23 23 22 23 26 29 30 30 30 28 27 29 29 29 29 30 26 28 26 26 25 25 29 29
40 43 39 37 41 42 36 31 28 27 25 23 22 24 25 27 28 27 26 30 32 30 30 30 29 29 28 26 23 25 27 25
36 43 38 37 39 40 35 34 32 28 27 25 25 24 25 27 30 32 32 35 36 35 29 29 32 31 32 28 16 24 28 26
34 37 34 34 31 30 30 29 28 29 30 30 30 30 30 29 32 34 35 36 38 36 29 29 33 35 35 26 11 11 32 33
23 28 28 24 23 24 24 24 26 29 29 26 27 33 34 34 36 34 32 33 35 34 34 32 30 36 39 39 29 21 15 13
20 20 21 19 20 21 19 17 19 23 24 26 25 25 31 34 36 36 36 33 33 34 37 37 36 33 38 38 41 31 24 26
19 18 18 18 17 19 15 17 15 16 19 24 27 26 26 30 33 33 34 37 35 35 37 39 37 35 35 36 38 44 38 32
23 15 19 16 11 7 7 5 10 14 17 20 20 21 25 29 30 29 29 32 34 35 36 37 36 38 37 39 37 39 41 43
23 25 13 7 6 3 1 5 9 12 15 17 18 21 20 21 26 30 32 31 30 32 34 35 35 36 37 39 37 41 40 44
Wind_Direction
164 161 164 169 166 166 171 176 180 185 187 187 187 184 177 178 173 163 161 167 165 186 190 178 173 173 181 182 171 163 168 194
172 171 172 175 175 174 176 179 182 185 187 189 191 189 187 188 191 185 185 188 187 187 182 181 175 175 188 191 182 175 186 189
185 184 181 183 185 183 183 185 186 187 191 192 193 194 193 197 198 202 206 197 186 173 178 181 179 179 191 200 191 204 216 215
195 197 195 194 193 192 190 192 192 193 195 197 199 199 199 203 202 208 214 205 187 177 179 188 187 186 185 209 210 236 213 196
203 208 207 207 204 201 200 199 200 199 200 203 204 203 202 204 204 207 211 203 196 189 194 196 189 194 200 218 217 210 213 209
217 213 214 216 217 214 210 206 206 206 206 207 208 207 207 207 209 210 212 210 207 204 203 208 206 208 215 224 220 213 216 221
222 227 221 223 224 224 222 218 214 214 213 212 211 213 212 212 214 213 215 215 214 215 217 214 210 213 207 221 229 224 214 222
224 228 229 227 230 231 230 228 226 223 220 219 219 216 217 217 218 218 219 221 221 223 225 222 218 216 210 213 224 227 223 225
229 233 233 233 231 233 233 232 232 232 232 228 227 226 223 223 221 223 224 226 226 227 226 223 224 217 216 216 223 223 231 227
233 232 233 232 232 233 231 232 232 234 236 235 234 233 230 229 227 226 228 227 228 228 224 224 224 222 228 219 226 222 223 220
235 230 232 232 233 234 232 229 228 231 236 237 237 236 233 233 234 229 230 230 229 229 225 225 223 224 230 228 233 235 225 216
238 225 222 226 231 231 231 232 227 240 240 243 241 238 235 232 234 233 231 231 231 232 231 226 226 230 226 228 231 237 223 220
231 221 223 223 227 227 227 231 227 237 240 244 241 238 239 231 233 236 232 231 234 235 233 228 224 224 223 221 228 234 225 223
219 226 225 224 222 221 225 226 229 234 240 245 247 244 240 232 233 238 237 233 233 231 233 225 221 224 216 221 213 220 220 226
207 207 208 214 213 218 221 222 226 231 235 239 242 245 243 240 241 240 243 242 239 234 228 231 221 221 223 215 181 204 222 226
163 170 174 177 186 200 211 222 229 234 241 247 249 248 246 243 245 242 244 247 244 237 229 232 225 226 217 221 226 218 195 203
167 163 167 175 187 196 211 230 236 239 241 243 246 249 248 245 243 245 244 243 244 238 233 231 228 230 231 227 224 223 227 217
169 167 160 166 178 185 195 217 234 240 242 243 247 248 249 242 239 243 243 242 244 243 237 235 233 229 233 235 235 227 219 218
158 153 140 148 157 154 161 223 259 267 258 247 247 250 250 242 240 239 240 243 247 246 242 237 236 230 239 236 239 242 235 230
139 146 138 146 147 170 333 274 284 291 270 258 252 248 243 246 244 245 241 247 249 246 243 242 240 235 242 238 241 245 244 237